"read_dt","SO2 (ppb)","flags","PMT voltage (V)","lamp voltage (V)","lamp intensity (Hz)","internal temp (C)","react chamber temp (C)","sample flow (l/min)","pres (mmHg)","SO2 bkg (ppb)","SO2 coefficient"
2018-09-28 00:00:00,-3.512E-01,4C000000*,-702.6,960.150,90,27.4,44.8,0.409,740.5,2.1,1.050*
2018-09-28 00:01:00,-3.264E-01,4C000000*,-702.6,958.937,89,27.4,44.8,0.409,740.8,2.1,1.050*
2018-09-28 00:02:00,-2.711E-01,4C000000*,-702.6,959.745,90,27.4,45.1,0.409,740.8,2.1,1.050*
2018-09-28 00:03:00,-3.044E-01,4C000000*,-702.6,960.150,90,27.4,44.9,0.409,740.8,2.1,1.050*
2018-09-28 00:04:00,-3.791E-01,4C000000*,-702.6,959.745,90,27.4,44.9,0.409,740.8,2.1,1.050*
2018-09-28 00:05:00,-3.038E-01,4C000000*,-702.6,960.150,90,27.4,45.2,0.410,740.5,2.1,1.050*
2018-09-28 00:06:00,-2.756E-01,4C000000*,-702.6,958.532,90,27.3,44.8,0.409,740.8,2.1,1.050*
2018-09-28 00:07:00,-3.357E-01,4C000000*,-702.6,961.362,88,27.4,45.0,0.410,740.5,2.1,1.050*
2018-09-28 00:08:00,-2.317E-01,4C000000*,-702.6,960.958,91,27.3,45.0,0.410,740.5,2.1,1.050*
2018-09-28 00:09:00,-3.322E-01,4C000000*,-702.6,960.958,91,27.3,44.8,0.409,740.8,2.1,1.050*
2018-09-28 00:10:00,-2.542E-01,4C000000*,-703.4,959.341,91,27.3,45.1,0.409,740.8,2.1,1.050*
2018-09-28 00:11:00,-2.121E-01,4C000000*,-702.6,960.150,89,27.4,44.9,0.409,740.5,2.1,1.050*
2018-09-28 00:12:00,-2.722E-01,4C000000*,-703.0,960.554,90,27.4,44.8,0.409,740.8,2.1,1.050*
2018-09-28 00:13:00,-1.978E-01,4C000000*,-702.6,960.150,90,27.4,45.1,0.409,740.5,2.1,1.050*
2018-09-28 00:14:00,-3.256E-01,4C000000*,-702.6,961.362,90,27.3,44.8,0.409,740.8,2.1,1.050*
2018-09-28 00:15:00,-3.422E-01,4C000000*,-703.0,959.341,91,27.3,44.9,0.410,740.8,2.1,1.050*
2018-09-28 00:16:00,-2.572E-01,4C000000*,-702.6,958.937,91,27.3,45.1,0.409,740.8,2.1,1.050*
2018-09-28 00:17:00,-3.211E-01,4C000000*,-702.6,959.341,90,27.4,44.8,0.409,740.8,2.1,1.050*
2018-09-28 00:18:00,-2.079E-01,4C000000*,-702.6,960.958,89,27.4,45.1,0.409,740.5,2.1,1.050*
2018-09-28 00:19:00,-3.534E-01,4C000000*,-703.0,958.937,91,27.4,44.9,0.409,740.5,2.1,1.050*
2018-09-28 00:20:00,-2.876E-01,4C000000*,-703.0,960.554,91,27.4,45.0,0.409,740.8,2.1,1.050*
2018-09-28 00:21:00,-3.010E-01,4C000000*,-702.6,960.958,90,27.4,44.9,0.409,740.5,2.1,1.050*
2018-09-28 00:22:00,-2.680E-01,4C000000*,-703.0,959.745,90,27.3,44.9,0.409,740.8,2.1,1.050*
2018-09-28 00:23:00,-2.893E-01,4C000000*,-702.6,959.341,91,27.4,45.0,0.409,740.5,2.1,1.050*
2018-09-28 00:24:00,-3.456E-01,4C000000*,-703.0,960.554,89,27.4,44.9,0.409,740.5,2.1,1.050*
2018-09-28 00:25:00,-3.285E-01,4C000000*,-702.6,960.958,90,27.4,45.0,0.409,740.5,2.1,1.050*
2018-09-28 00:26:00,-3.920E-01,4C000000*,-703.0,960.958,90,27.4,44.8,0.409,740.5,2.1,1.050*
2018-09-28 00:27:00,-3.629E-01,4C000000*,-702.6,960.958,88,27.4,45.1,0.409,740.5,2.1,1.050*
2018-09-28 00:28:00,-3.952E-01,4C000000*,-702.6,960.150,90,27.4,44.8,0.409,740.5,2.1,1.050*
2018-09-28 00:29:00,-2.968E-01,4C000000*,-703.0,960.958,90,27.4,45.0,0.409,740.8,2.1,1.050*
2018-09-28 00:30:00,-3.190E-01,4C000000*,-702.6,960.554,91,27.5,45.0,0.410,740.5,2.1,1.050*
2018-09-28 00:31:00,-3.112E-01,4C000000*,-703.0,960.958,89,27.4,44.8,0.409,740.5,2.1,1.050*
2018-09-28 00:32:00,-3.108E-01,4C000000*,-702.6,960.958,90,27.5,45.1,0.409,740.5,2.1,1.050*
2018-09-28 00:33:00,-3.373E-01,4C000000*,-703.0,959.745,91,27.5,44.9,0.409,740.5,2.1,1.050*
2018-09-28 00:34:00,-3.157E-01,4C000000*,-702.6,960.554,89,27.4,45.0,0.409,740.5,2.1,1.050*
2018-09-28 00:35:00,-2.713E-01,4C000000*,-702.6,960.554,90,27.4,45.0,0.409,740.5,2.1,1.050*
2018-09-28 00:36:00,-3.342E-01,4C000000*,-703.0,960.958,90,27.4,44.9,0.409,740.5,2.1,1.050*
2018-09-28 00:37:00,-2.787E-01,4C000000*,-702.6,959.745,91,27.4,45.1,0.409,740.5,2.1,1.050*
2018-09-28 00:38:00,-3.371E-01,4C000000*,-703.0,960.554,90,27.5,44.8,0.409,740.5,2.1,1.050*
2018-09-28 00:39:00,-3.257E-01,4C000000*,-703.0,960.958,90,27.4,45.2,0.409,740.5,2.1,1.050*
2018-09-28 00:40:00,-3.329E-01,4C000000*,-702.6,961.362,90,27.4,44.8,0.409,740.2,2.1,1.050*
2018-09-28 00:41:00,-2.929E-01,4C000000*,-702.6,959.745,90,27.5,45.0,0.410,740.5,2.1,1.050*
2018-09-28 00:42:00,-3.786E-01,4C000000*,-703.0,960.958,89,27.5,44.9,0.409,740.5,2.1,1.050*
2018-09-28 00:43:00,-3.207E-01,4C000000*,-702.6,959.341,90,27.5,44.9,0.409,740.5,2.1,1.050*
2018-09-28 00:44:00,-2.633E-01,4C000000*,-703.4,959.745,89,27.5,45.1,0.409,740.5,2.1,1.050*
2018-09-28 00:45:00,-2.934E-01,4C000000*,-703.0,959.745,88,27.5,44.8,0.409,740.5,2.1,1.050*
2018-09-28 00:46:00,-3.216E-01,4C000000*,-702.6,959.341,91,27.5,45.1,0.409,740.5,2.1,1.050*
2018-09-28 00:47:00,-3.037E-01,4C000000*,-703.7,959.745,90,27.5,44.8,0.409,740.5,2.1,1.050*
2018-09-28 00:48:00,-2.599E-01,4C000000*,-703.0,960.150,90,27.5,45.1,0.409,740.5,2.1,1.050*
2018-09-28 00:49:00,-3.476E-01,4C000000*,-703.0,960.958,89,27.5,44.9,0.409,740.5,2.1,1.050*
2018-09-28 00:50:00,-2.962E-01,4C000000*,-702.3,960.150,89,27.5,44.9,0.410,740.5,2.1,1.050*
2018-09-28 00:51:00,-3.476E-01,4C000000*,-703.0,959.745,89,27.6,45.2,0.409,740.5,2.1,1.050*
2018-09-28 00:52:00,-2.632E-01,4C000000*,-702.6,959.745,90,27.5,44.8,0.409,740.5,2.1,1.050*
2018-09-28 00:53:00,-3.555E-01,4C000000*,-702.6,960.958,90,27.6,45.0,0.409,740.5,2.1,1.050*
2018-09-28 00:54:00,-2.826E-01,4C000000*,-703.0,960.554,89,27.6,44.9,0.409,740.5,2.1,1.050*
2018-09-28 00:55:00,-4.335E-01,4C000000*,-703.0,959.745,89,27.6,44.9,0.409,740.5,2.1,1.050*
2018-09-28 00:56:00,-3.147E-01,4C000000*,-702.3,959.341,90,27.6,45.1,0.409,740.2,2.1,1.050*
2018-09-28 00:57:00,-3.289E-01,4C000000*,-702.6,959.745,91,27.7,44.9,0.409,740.5,2.1,1.050*
2018-09-28 00:58:00,-2.902E-01,4C000000*,-703.0,959.341,91,27.7,45.1,0.409,740.2,2.1,1.050*
2018-09-28 00:59:00,-1.863E-01,4C000000*,-703.0,960.554,89,27.6,44.8,0.410,740.5,2.1,1.050*
2018-09-28 01:00:00,-2.721E-01,4C000000*,-703.4,960.554,89,27.7,45.1,0.409,740.5,2.1,1.050*
2018-09-28 01:01:00,-3.296E-01,4C000000*,-702.3,959.745,90,27.7,44.9,0.409,740.2,2.1,1.050*
2018-09-28 01:02:00,-3.161E-01,4C000000*,-702.6,960.150,91,27.6,45.0,0.409,740.2,2.1,1.050*
2018-09-28 01:03:00,-3.229E-01,4C000000*,-702.6,958.937,90,27.7,45.1,0.409,740.2,2.1,1.050*
2018-09-28 01:04:00,-2.985E-01,4C000000*,-703.0,960.150,90,27.7,44.9,0.409,740.5,2.1,1.050*
2018-09-28 01:05:00,-3.594E-01,4C000000*,-703.0,960.150,89,27.7,45.1,0.409,740.2,2.1,1.050*
2018-09-28 01:06:00,-4.119E-01,4C000000*,-702.6,962.171,89,27.7,44.8,0.409,740.5,2.1,1.050*
2018-09-28 01:07:00,-2.752E-01,4C000000*,-703.0,959.745,89,27.8,45.1,0.409,740.5,2.1,1.050*
2018-09-28 01:08:00,-3.543E-01,4C000000*,-702.6,960.958,90,27.7,44.9,0.409,740.5,2.1,1.050*
2018-09-28 01:09:00,-2.660E-01,4C000000*,-703.0,959.745,88,27.7,45.0,0.409,740.5,2.1,1.050*
2018-09-28 01:10:00,-3.671E-01,4C000000*,-703.0,960.150,90,27.7,45.1,0.409,740.2,2.1,1.050*
2018-09-28 01:11:00,-3.046E-01,4C000000*,-702.6,960.150,90,27.6,44.9,0.409,740.5,2.1,1.050*
2018-09-28 01:12:00,-3.332E-01,4C000000*,-703.4,959.745,89,27.6,45.0,0.409,740.5,2.1,1.050*
2018-09-28 01:13:00,-3.909E-01,4C000000*,-702.6,959.745,90,27.4,44.8,0.409,740.2,2.1,1.050*
2018-09-28 01:14:00,-3.071E-01,4C000000*,-703.4,960.150,89,27.4,45.0,0.409,740.5,2.1,1.050*
2018-09-28 01:15:00,-2.886E-01,4C000000*,-702.6,960.958,91,27.2,45.0,0.409,740.2,2.1,1.050*
2018-09-28 01:16:00,-3.517E-01,4C000000*,-703.4,960.150,90,27.2,44.8,0.410,740.5,2.1,1.050*
2018-09-28 01:17:00,-2.780E-01,4C000000*,-702.6,960.554,89,27.2,45.0,0.410,740.2,2.1,1.050*
2018-09-28 01:18:00,-4.489E-01,4C000000*,-703.0,960.958,90,27.1,44.8,0.409,740.5,2.1,1.050*
2018-09-28 01:19:00,-3.176E-01,4C000000*,-702.6,959.341,90,27.0,45.1,0.409,740.2,2.1,1.050*
2018-09-28 01:20:00,-3.982E-01,4C000000*,-703.0,961.362,90,27.1,44.9,0.409,740.2,2.1,1.050*
2018-09-28 01:21:00,-3.639E-01,4C000000*,-702.6,959.745,90,27.0,45.0,0.409,740.5,2.1,1.050*
2018-09-28 01:22:00,-3.323E-01,4C000000*,-702.6,960.150,89,27.0,45.0,0.409,740.2,2.1,1.050*
2018-09-28 01:23:00,-2.919E-01,4C000000*,-702.6,960.150,90,26.9,44.9,0.409,740.2,2.1,1.050*
2018-09-28 01:24:00,-3.499E-01,4C000000*,-703.0,961.362,90,26.9,45.1,0.409,740.2,2.1,1.050*
2018-09-28 01:25:00,-3.307E-01,4C000000*,-703.0,959.745,90,26.8,44.8,0.409,740.2,2.1,1.050*
2018-09-28 01:26:00,-3.703E-01,4C000000*,-703.0,960.554,90,26.7,45.1,0.409,740.2,2.1,1.050*
2018-09-28 01:27:00,-3.097E-01,4C000000*,-703.4,962.171,89,26.8,45.0,0.409,740.2,2.1,1.050*
2018-09-28 01:28:00,-3.114E-01,4C000000*,-702.6,959.745,89,26.7,44.8,0.409,740.2,2.1,1.050*
2018-09-28 01:29:00,-4.224E-01,4C000000*,-703.0,961.362,89,26.7,45.1,0.409,740.5,2.1,1.050*
2018-09-28 01:30:00,-4.196E-01,4C000000*,-702.6,960.958,91,26.6,44.9,0.409,740.2,2.1,1.050*
2018-09-28 01:31:00,-2.743E-01,4C000000*,-703.0,960.958,89,26.6,44.9,0.409,740.2,2.1,1.050*
2018-09-28 01:32:00,-3.127E-01,4C000000*,-703.0,959.745,90,26.5,45.2,0.409,740.2,2.1,1.050*
2018-09-28 01:33:00,-3.693E-01,4C000000*,-703.0,961.362,89,26.6,44.8,0.409,740.2,2.1,1.050*
2018-09-28 01:34:00,-2.796E-01,4C000000*,-703.0,960.958,91,26.6,45.0,0.409,740.2,2.1,1.050*
2018-09-28 01:35:00,-2.893E-01,4C000000*,-703.0,960.150,89,26.6,45.0,0.409,740.2,2.1,1.050*
2018-09-28 01:36:00,-3.170E-01,4C000000*,-703.0,961.362,89,26.5,44.7,0.409,740.2,2.1,1.050*
2018-09-28 01:37:00,-2.409E-01,4C000000*,-703.0,961.362,89,26.5,45.0,0.409,740.5,2.1,1.050*
2018-09-28 01:38:00,-2.891E-01,4C000000*,-703.0,960.150,90,26.5,45.1,0.409,740.2,2.2,1.050*
2018-09-28 01:39:00,-3.212E-01,4C000000*,-702.6,961.362,89,26.5,44.8,0.409,740.2,2.2,1.050*
2018-09-28 01:40:00,-2.728E-01,4C000000*,-703.0,961.362,90,26.5,45.1,0.409,740.2,2.2,1.050*
2018-09-28 01:41:00,-2.747E-01,4C000000*,-703.0,960.958,89,26.5,44.9,0.409,740.2,2.2,1.050*
2018-09-28 01:42:00,-3.177E-01,4C000000*,-703.0,961.767,90,26.5,44.9,0.409,740.2,2.2,1.050*
2018-09-28 01:43:00,-2.540E-01,4C000000*,-702.3,960.150,90,26.6,45.2,0.409,740.2,2.1,1.050*
2018-09-28 01:44:00,-2.819E-01,4C000000*,-702.6,960.958,91,26.5,44.8,0.409,740.2,2.1,1.050*
2018-09-28 01:45:00,-2.907E-01,4C000000*,-703.0,961.767,90,26.6,44.9,0.409,740.2,2.1,1.050*
2018-09-28 01:46:00,-2.792E-01,4C000000*,-702.6,960.554,89,26.7,45.0,0.409,740.2,2.1,1.050*
2018-09-28 01:47:00,-3.800E-01,4C000000*,-702.3,959.745,90,26.7,44.8,0.409,740.2,2.1,1.050*
2018-09-28 01:48:00,-3.322E-01,4C000000*,-703.0,961.767,89,26.8,45.0,0.409,740.2,2.1,1.050*
2018-09-28 01:49:00,-2.733E-01,4C000000*,-703.0,959.745,89,26.8,45.1,0.409,739.9,2.1,1.050*
2018-09-28 01:50:00,-3.102E-01,4C000000*,-703.0,960.150,90,26.8,44.9,0.409,740.2,2.1,1.050*
2018-09-28 01:51:00,-2.787E-01,4C000000*,-703.0,960.554,90,26.9,45.1,0.409,740.2,2.1,1.050*
2018-09-28 01:52:00,-2.318E-01,4C000000*,-703.0,960.958,90,26.9,44.8,0.408,740.2,2.1,1.050*
2018-09-28 01:53:00,-2.989E-01,4C000000*,-703.0,960.554,90,26.9,44.9,0.409,740.2,2.1,1.050*
2018-09-28 01:54:00,-3.542E-01,4C000000*,-703.0,959.745,90,26.9,45.2,0.409,740.2,2.1,1.050*
2018-09-28 01:55:00,-3.418E-01,4C000000*,-703.0,960.958,89,27.0,44.8,0.408,739.9,2.1,1.050*
2018-09-28 01:56:00,-3.274E-01,4C000000*,-702.6,960.958,91,27.1,45.0,0.409,740.2,2.1,1.050*
2018-09-28 01:57:00,-2.994E-01,4C000000*,-703.0,960.150,90,27.0,45.1,0.409,739.9,2.1,1.050*
2018-09-28 01:58:00,-3.934E-01,4C000000*,-702.6,960.958,89,27.1,44.8,0.409,740.2,2.1,1.050*
2018-09-28 01:59:00,-3.012E-01,4C000000*,-702.6,960.554,89,27.0,45.0,0.409,739.9,2.1,1.050*
2018-09-28 02:00:00,-2.917E-01,4C000000*,-702.3,962.575,92,27.0,45.0,0.408,739.9,2.1,1.050*
2018-09-28 02:01:00,-2.154E-01,4C000000*,-702.3,960.554,89,27.1,44.8,0.408,739.9,2.1,1.050*
2018-09-28 02:02:00,-3.159E-01,4C000000*,-703.0,960.554,90,27.1,45.1,0.409,739.9,2.1,1.050*
2018-09-28 02:03:00,-3.105E-01,4C000000*,-703.4,961.362,90,27.1,44.9,0.408,739.9,2.1,1.050*
2018-09-28 02:04:00,-3.425E-01,4C000000*,-702.3,960.554,90,27.2,44.9,0.409,739.9,2.1,1.050*
2018-09-28 02:05:00,-3.322E-01,4C000000*,-703.0,962.171,89,27.2,45.1,0.409,739.9,2.1,1.050*
2018-09-28 02:06:00,-2.831E-01,4C000000*,-702.6,960.958,90,27.2,44.8,0.409,739.9,2.1,1.050*
2018-09-28 02:07:00,-2.828E-01,4C000000*,-703.0,960.150,89,27.3,44.9,0.409,739.9,2.1,1.050*
2018-09-28 02:08:00,-2.964E-01,4C000000*,-702.6,959.745,88,27.2,45.1,0.408,739.9,2.1,1.050*
2018-09-28 02:09:00,-2.343E-01,4C000000*,-703.0,960.150,90,27.2,44.9,0.409,740.2,2.1,1.050*
2018-09-28 02:10:00,-3.132E-01,4C000000*,-703.0,960.958,89,27.3,45.1,0.409,739.9,2.1,1.050*
2018-09-28 02:11:00,-3.177E-01,4C000000*,-703.0,960.150,89,27.3,44.8,0.409,739.9,2.1,1.050*
2018-09-28 02:12:00,-3.480E-01,4C000000*,-702.6,960.554,89,27.4,45.2,0.408,739.9,2.1,1.050*
2018-09-28 02:13:00,-2.546E-01,4C000000*,-702.6,960.150,89,27.3,44.8,0.409,739.9,2.1,1.050*
2018-09-28 02:14:00,-3.094E-01,4C000000*,-703.0,960.958,90,27.3,45.0,0.409,739.9,2.1,1.050*
2018-09-28 02:15:00,-3.298E-01,4C000000*,-703.0,961.362,89,27.3,45.0,0.409,739.9,2.1,1.050*
2018-09-28 02:16:00,-2.424E-01,4C000000*,-702.6,960.150,90,27.4,44.8,0.409,739.9,2.1,1.050*
2018-09-28 02:17:00,-2.992E-01,4C000000*,-702.6,960.150,90,27.5,45.1,0.408,739.9,2.1,1.050*
2018-09-28 02:18:00,-3.164E-01,4C000000*,-703.0,960.150,90,27.4,45.0,0.409,739.9,2.1,1.050*
2018-09-28 02:19:00,-3.277E-01,4C000000*,-702.3,960.150,90,27.5,44.8,0.409,739.9,2.1,1.050*
2018-09-28 02:20:00,-3.078E-01,4C000000*,-702.6,962.171,89,27.5,45.1,0.409,739.9,2.1,1.050*
2018-09-28 02:21:00,-3.361E-01,4C000000*,-702.6,960.554,90,27.4,44.8,0.409,739.9,2.1,1.050*
2018-09-28 02:22:00,-3.601E-01,4C000000*,-703.0,960.958,88,27.5,44.9,0.409,739.9,2.1,1.050*
2018-09-28 02:23:00,-3.423E-01,4C000000*,-703.0,961.362,89,27.5,45.1,0.409,739.9,2.1,1.050*
2018-09-28 02:24:00,-3.733E-01,4C000000*,-702.6,961.362,89,27.4,44.8,0.409,739.9,2.1,1.050*
2018-09-28 02:25:00,-2.075E-01,4C000000*,-703.0,959.745,89,27.6,45.2,0.409,739.9,2.1,1.050*
2018-09-28 02:26:00,-2.934E-01,4C000000*,-702.6,960.150,90,27.6,44.9,0.409,739.6,2.1,1.050*
2018-09-28 02:27:00,-3.070E-01,4C000000*,-702.6,960.150,89,27.5,44.8,0.409,739.9,2.1,1.050*
2018-09-28 02:28:00,-2.850E-01,4C000000*,-702.6,960.554,91,27.6,45.1,0.409,739.9,2.1,1.050*
2018-09-28 02:29:00,-3.542E-01,4C000000*,-702.6,960.150,90,27.7,44.8,0.409,739.9,2.1,1.050*
2018-09-28 02:30:00,-2.652E-01,4C000000*,-702.6,960.150,90,27.5,45.0,0.409,739.9,2.1,1.050*
2018-09-28 02:31:00,-3.727E-01,4C000000*,-702.6,960.150,88,27.7,45.1,0.409,739.9,2.1,1.050*
2018-09-28 02:32:00,-3.214E-01,4C000000*,-702.6,960.958,87,27.7,44.8,0.409,739.9,2.1,1.050*
2018-09-28 02:33:00,-3.031E-01,4C000000*,-702.6,960.150,90,27.7,45.0,0.409,739.9,2.1,1.050*
2018-09-28 02:34:00,-3.871E-01,4C000000*,-703.0,960.958,91,27.6,45.0,0.409,739.6,2.1,1.050*
2018-09-28 02:35:00,-3.309E-01,4C000000*,-702.6,959.745,90,27.6,44.8,0.409,739.9,2.1,1.050*
2018-09-28 02:36:00,-3.089E-01,4C000000*,-702.6,960.150,89,27.7,45.2,0.409,739.9,2.1,1.050*
2018-09-28 02:37:00,-3.276E-01,4C000000*,-703.4,960.150,90,27.6,44.8,0.409,739.9,2.1,1.050*
2018-09-28 02:38:00,-2.270E-01,4C000000*,-702.6,960.150,92,27.7,45.0,0.409,739.9,2.1,1.050*
2018-09-28 02:39:00,-2.082E-01,4C000000*,-703.4,960.958,90,27.8,44.9,0.409,739.6,2.1,1.050*
2018-09-28 02:40:00,-2.695E-01,4C000000*,-702.6,960.150,90,27.8,44.9,0.409,739.9,2.1,1.050*
2018-09-28 02:41:00,-2.940E-01,4C000000*,-703.0,959.341,90,27.8,45.2,0.409,739.6,2.1,1.050*
2018-09-28 02:42:00,-2.940E-01,4C000000*,-702.6,958.937,90,27.7,44.8,0.409,739.6,2.1,1.050*
2018-09-28 02:43:00,-3.224E-01,4C000000*,-702.6,960.150,89,27.7,45.0,0.409,739.9,2.1,1.050*
2018-09-28 02:44:00,-2.659E-01,4C000000*,-702.6,960.150,88,27.7,45.0,0.409,739.6,2.1,1.050*
2018-09-28 02:45:00,-2.099E-01,4C000000*,-702.6,960.554,91,27.8,44.9,0.409,739.9,2.1,1.050*
2018-09-28 02:46:00,-3.739E-01,4C000000*,-702.6,959.745,89,27.8,45.1,0.409,739.9,2.1,1.050*
2018-09-28 02:47:00,-3.239E-01,4C000000*,-702.3,962.575,90,27.8,44.9,0.409,739.9,2.1,1.050*
2018-09-28 02:48:00,-2.719E-01,4C000000*,-703.0,960.958,90,27.8,45.2,0.409,739.9,2.1,1.050*
2018-09-28 02:49:00,-2.768E-01,4C000000*,-702.6,960.150,90,27.8,44.8,0.409,739.9,2.1,1.050*
2018-09-28 02:50:00,-3.122E-01,4C000000*,-702.6,960.150,90,27.9,45.0,0.409,739.9,2.1,1.050*
2018-09-28 02:51:00,-3.803E-01,4C000000*,-703.4,960.150,90,27.9,44.9,0.409,739.9,2.1,1.050*
2018-09-28 02:52:00,-3.757E-01,4C000000*,-703.0,959.745,89,27.9,44.9,0.409,739.9,2.1,1.050*
2018-09-28 02:53:00,-2.729E-01,4C000000*,-702.6,959.341,90,27.9,45.1,0.409,739.6,2.1,1.050*
2018-09-28 02:54:00,-3.835E-01,4C000000*,-702.6,959.341,88,27.8,44.8,0.409,739.9,2.1,1.050*
2018-09-28 02:55:00,-2.816E-01,4C000000*,-702.6,959.341,90,27.9,45.1,0.410,739.6,2.1,1.050*
2018-09-28 02:56:00,-3.409E-01,4C000000*,-702.6,959.341,90,27.8,44.8,0.409,739.9,2.1,1.050*
2018-09-28 02:57:00,-2.501E-01,4C000000*,-703.0,960.554,88,27.9,45.0,0.409,739.9,2.1,1.050*
2018-09-28 02:58:00,-3.197E-01,4C000000*,-702.6,960.958,89,27.9,44.9,0.409,739.9,2.1,1.050*
2018-09-28 02:59:00,-3.279E-01,4C000000*,-703.0,960.554,90,28.0,45.0,0.409,739.9,2.1,1.050*
2018-09-28 03:00:00,-3.440E-01,4C000000*,-702.6,960.554,91,27.9,45.1,0.409,739.6,2.1,1.050*
2018-09-28 03:01:00,-3.381E-01,4C000000*,-703.0,960.958,91,27.9,44.9,0.409,739.9,2.1,1.050*
2018-09-28 03:02:00,-3.425E-01,4C000000*,-702.6,960.150,88,27.9,45.1,0.409,739.6,2.1,1.050*
2018-09-28 03:03:00,-2.668E-01,4C000000*,-702.6,959.745,89,28.0,44.8,0.409,739.9,2.1,1.050*
2018-09-28 03:04:00,-3.809E-01,4C000000*,-702.6,959.745,90,28.0,45.1,0.409,739.9,2.1,1.050*
2018-09-28 03:05:00,-2.920E-01,4C000000*,-702.6,959.341,89,27.9,44.9,0.409,739.6,2.1,1.050*
2018-09-28 03:06:00,-3.316E-01,4C000000*,-702.6,960.150,89,27.9,45.0,0.409,739.9,2.1,1.050*
2018-09-28 03:07:00,-3.231E-01,4C000000*,-702.6,960.958,89,27.9,44.9,0.409,739.6,2.1,1.050*
2018-09-28 03:08:00,-3.299E-01,4C000000*,-703.0,958.937,90,27.9,44.9,0.409,739.9,2.1,1.050*
2018-09-28 03:09:00,-2.539E-01,4C000000*,-703.0,960.958,90,28.0,45.0,0.409,739.9,2.1,1.050*
2018-09-28 03:10:00,-3.045E-01,4C000000*,-703.0,959.745,89,28.0,44.8,0.409,739.6,2.1,1.050*
2018-09-28 03:11:00,-3.226E-01,4C000000*,-702.6,960.554,90,28.0,45.2,0.409,739.9,2.1,1.050*
2018-09-28 03:12:00,-3.191E-01,4C000000*,-702.6,961.767,91,27.9,44.8,0.409,739.9,2.1,1.050*
2018-09-28 03:13:00,-2.624E-01,4C000000*,-702.6,959.341,90,28.0,45.0,0.409,739.9,2.1,1.050*
2018-09-28 03:14:00,-3.208E-01,4C000000*,-703.0,960.958,89,28.0,45.0,0.409,739.6,2.1,1.050*
2018-09-28 03:15:00,-2.968E-01,4C000000*,-702.6,960.958,88,28.1,45.0,0.409,739.9,2.1,1.050*
2018-09-28 03:16:00,-3.584E-01,4C000000*,-702.6,960.554,88,27.9,45.1,0.409,739.6,2.1,1.050*
2018-09-28 03:17:00,-3.031E-01,4C000000*,-702.6,960.554,91,28.0,44.8,0.409,739.9,2.1,1.050*
2018-09-28 03:18:00,-3.711E-01,4C000000*,-703.0,960.150,89,28.0,45.2,0.409,739.9,2.1,1.050*
2018-09-28 03:19:00,-3.546E-01,4C000000*,-703.0,960.554,89,28.1,44.8,0.409,739.9,2.1,1.050*
2018-09-28 03:20:00,-3.862E-01,4C000000*,-702.6,960.554,91,28.1,45.1,0.409,739.9,2.1,1.050*
2018-09-28 03:21:00,-2.908E-01,4C000000*,-702.6,960.150,90,28.0,44.9,0.409,739.9,2.1,1.050*
2018-09-28 03:22:00,-3.190E-01,4C000000*,-703.0,958.937,90,28.1,44.9,0.409,739.9,2.1,1.050*
2018-09-28 03:23:00,-3.937E-01,4C000000*,-703.0,960.958,89,28.1,45.1,0.409,739.6,2.1,1.050*
2018-09-28 03:24:00,-3.314E-01,4C000000*,-703.0,960.554,89,28.1,44.9,0.409,739.9,2.1,1.050*
2018-09-28 03:25:00,-3.632E-01,4C000000*,-702.6,960.150,90,28.1,45.1,0.409,739.9,2.1,1.050*
2018-09-28 03:26:00,-2.659E-01,4C000000*,-702.6,960.150,88,28.1,44.8,0.409,739.9,2.1,1.050*
2018-09-28 03:27:00,-3.069E-01,4C000000*,-703.0,959.745,91,28.1,45.0,0.409,739.9,2.1,1.050*
2018-09-28 03:28:00,-3.543E-01,4C000000*,-702.6,960.554,90,28.0,44.9,0.409,739.6,2.1,1.050*
2018-09-28 03:29:00,-3.226E-01,4C000000*,-702.6,960.958,90,28.2,45.0,0.409,739.9,2.1,1.050*
2018-09-28 03:30:00,-2.461E-01,4C000000*,-703.0,960.150,90,28.2,45.1,0.409,739.6,2.1,1.050*
2018-09-28 03:31:00,-3.052E-01,4C000000*,-702.6,960.554,89,28.1,44.9,0.409,739.9,2.1,1.050*
2018-09-28 03:32:00,-2.928E-01,4C000000*,-702.6,959.745,90,28.1,45.0,0.409,739.6,2.1,1.050*
2018-09-28 03:33:00,-2.773E-01,4C000000*,-702.6,961.767,89,28.2,44.8,0.409,739.6,2.1,1.050*
2018-09-28 03:34:00,-3.103E-01,4C000000*,-702.6,960.958,90,28.2,45.2,0.409,739.9,2.1,1.050*
2018-09-28 03:35:00,-3.367E-01,4C000000*,-702.6,960.958,90,28.2,44.8,0.409,739.6,2.1,1.050*
2018-09-28 03:36:00,-3.511E-01,4C000000*,-702.6,960.554,91,28.2,45.0,0.409,739.6,2.1,1.050*
2018-09-28 03:37:00,-2.290E-01,4C000000*,-702.6,959.341,90,28.2,45.0,0.409,739.6,2.1,1.050*
2018-09-28 03:38:00,-3.385E-01,4C000000*,-702.6,960.958,90,28.1,44.8,0.409,739.6,2.1,1.050*
2018-09-28 03:39:00,-3.517E-01,4C000000*,-703.0,958.937,90,28.2,45.1,0.409,739.6,2.1,1.050*
2018-09-28 03:40:00,-3.525E-01,4C000000*,-703.0,960.150,90,28.2,44.9,0.409,739.3,2.1,1.050*
2018-09-28 03:41:00,-2.998E-01,4C000000*,-702.6,959.745,90,28.2,45.0,0.409,739.6,2.1,1.050*
2018-09-28 03:42:00,-2.765E-01,4C000000*,-702.6,961.362,88,28.2,45.1,0.409,739.6,2.1,1.050*
2018-09-28 03:43:00,-2.902E-01,4C000000*,-703.4,960.150,90,28.2,44.8,0.409,739.6,2.1,1.050*
2018-09-28 03:44:00,-2.584E-01,4C000000*,-703.0,960.958,89,28.2,45.0,0.409,739.6,2.1,1.050*
2018-09-28 03:45:00,-3.274E-01,4C000000*,-703.4,960.958,90,28.2,44.9,0.409,739.6,2.1,1.050*
2018-09-28 03:46:00,-2.690E-01,4C000000*,-702.6,960.958,88,28.3,44.9,0.409,739.6,2.1,1.050*
2018-09-28 03:47:00,-2.734E-01,4C000000*,-702.3,959.745,91,28.2,45.0,0.409,739.3,2.1,1.050*
2018-09-28 03:48:00,-3.491E-01,4C000000*,-702.6,960.554,89,28.3,44.9,0.409,739.6,2.1,1.050*
2018-09-28 03:49:00,-2.581E-01,4C000000*,-702.6,958.532,89,28.3,45.1,0.409,739.3,2.1,1.050*
2018-09-28 03:50:00,-2.946E-01,4C000000*,-702.6,960.554,91,28.3,44.9,0.409,739.6,2.1,1.050*
2018-09-28 03:51:00,-2.055E-01,4C000000*,-702.6,960.554,91,28.3,45.2,0.409,739.6,2.1,1.050*
2018-09-28 03:52:00,-3.334E-01,4C000000*,-703.0,960.150,91,28.3,44.9,0.409,739.6,2.1,1.050*
2018-09-28 03:53:00,-3.309E-01,4C000000*,-702.6,960.150,90,28.3,45.0,0.409,739.6,2.1,1.050*
2018-09-28 03:54:00,-3.676E-01,4C000000*,-703.0,960.958,90,28.3,45.0,0.409,739.6,2.1,1.050*
2018-09-28 03:55:00,-3.174E-01,4C000000*,-702.6,960.554,91,28.3,44.9,0.409,739.6,2.1,1.050*
2018-09-28 03:56:00,-3.591E-01,4C000000*,-703.0,960.958,89,28.3,45.1,0.409,739.3,2.1,1.050*
2018-09-28 03:57:00,-2.268E-01,4C000000*,-702.6,960.958,89,28.3,44.8,0.409,739.6,2.1,1.050*
2018-09-28 03:58:00,-3.317E-01,4C000000*,-702.6,960.554,91,28.3,45.2,0.409,739.6,2.1,1.050*
2018-09-28 03:59:00,-2.721E-01,4C000000*,-702.3,959.341,89,28.3,44.9,0.409,739.6,2.1,1.050*
2018-09-28 04:00:00,-2.332E-01,4C000000*,-702.6,961.767,90,28.3,45.0,0.409,739.6,2.1,1.050*
2018-09-28 04:01:00,-2.718E-01,4C000000*,-702.6,960.150,91,28.3,44.9,0.409,739.3,2.1,1.050*
2018-09-28 04:02:00,-4.068E-01,4C000000*,-702.6,961.362,90,28.4,44.9,0.409,739.6,2.1,1.050*
2018-09-28 04:03:00,-3.297E-01,4C000000*,-702.6,960.554,89,28.4,45.0,0.409,739.6,2.1,1.050*
2018-09-28 04:04:00,-3.433E-01,4C000000*,-703.0,960.150,91,28.4,44.8,0.409,739.6,2.1,1.050*
2018-09-28 04:05:00,-2.970E-01,4C000000*,-702.3,961.362,89,28.3,45.1,0.409,739.6,2.1,1.050*
2018-09-28 04:06:00,-2.604E-01,4C000000*,-703.0,961.767,88,28.3,44.8,0.409,739.3,2.1,1.050*
2018-09-28 04:07:00,-2.736E-01,4C000000*,-702.6,958.532,90,28.4,45.0,0.409,739.6,2.1,1.050*
2018-09-28 04:08:00,-3.456E-01,4C000000*,-703.0,960.554,91,28.4,44.9,0.409,739.6,2.1,1.050*
2018-09-28 04:09:00,-3.322E-01,4C000000*,-703.0,961.362,89,28.4,45.0,0.409,739.6,2.1,1.050*
2018-09-28 04:10:00,-4.206E-01,4C000000*,-702.6,960.150,90,28.4,45.1,0.409,739.3,2.1,1.050*
2018-09-28 04:11:00,-3.100E-01,4C000000*,-702.6,959.341,90,28.4,44.8,0.409,739.6,2.1,1.050*
2018-09-28 04:12:00,-2.484E-01,4C000000*,-702.6,960.150,90,28.4,45.2,0.409,739.6,2.1,1.050*
2018-09-28 04:13:00,-3.696E-01,4C000000*,-702.6,961.767,91,28.4,44.8,0.409,739.6,2.1,1.050*
2018-09-28 04:14:00,-3.096E-01,4C000000*,-702.3,960.150,91,28.4,45.1,0.409,739.6,2.1,1.050*